Location: Brachbach
(49.1847°N, 9.7240°E)
Time: 22:27:20
(UTC+00:00)

Cosmos 1782 Rocket - Pass Details

Date: 23 May 2024
Orbit: 602 x 629 km, 82.5° (Epoch: 14 June)

Event Time Altitude Azimuth Distance (km) Brightness Sun altitude
Rises 01:50:30 0° 342° (NNW) 2,899 7.5 -12.4°
Reaches altitude 10° 01:52:53 10° 334° (NNW) 1,984 6.5 -12.1°
Maximum altitude 01:56:51 34° 269° (W) 1,005 4.3 -11.7°
Enters shadow 01:59:41 16° 212° (SSW) 1,578 5.0 -11.5°
